Miscellaneous Local Product
Issued by NWS Hastings, NE

Home | Current Version | Previous Version | Text Only | Print | Product List | Glossary On
Versions: 1 2 3 4 5 6 7 8 9 10 11 12 13 14 15 16 17 18 19 20 21 22 23 24 25 26 27 28 29 30 31 32 33 34 35 36 37 38 39 40 41 42 43 44 45 46 47 48 49 50
000
AXUS43 KGID 211002
MISGRI

GID CWA HOURLY WEATHER ROUNDUP
NATIONAL WEATHER SERVICE HASTINGS NE
400 AM CST FRI NOV 21 2014

NOTE: "FAIR" INDICATES FEW OR NO CLOUDS BELOW 12,000 FEET WITH NO
SIGNIFICANT WEATHER AND/OR OBSTRUCTIONS TO VISIBILITY.

...SOUTH CENTRAL NEBRASKA...

CITY           SKY/WX    TMP DP  RH WIND       PRES   REMARKS
GRAND ISLAND   PTCLDY    21  16  81 S10       30.14F WCI  10
HASTINGS       CLEAR     20  15  81 S7        30.12F WCI  11
KEARNEY        CLEAR     21  16  79 SE9       30.11F WCI  11
ORD            PTCLDY    14  12  92 E6        30.08F WCI   5
YORK           PTCLDY    18  16  93 S7        30.16F WCI   8
AURORA         PTCLDY    19  16  87 S6        30.14F WCI  11
LEXINGTON      PTCLDY    23  19  83 SE6       30.07F WCI  16
HOLDREGE       PTCLDY    23  18  81 S6        30.09S WCI  16
HEBRON         PTCLDY    22  16  79 CALM      30.18S

...NEBRASKA PANHANDLE...

CITY           SKY/WX    TMP DP  RH WIND       PRES   REMARKS
CHADRON        MOCLDY    25  20  81 SW5       29.89S WCI  19
ALLIANCE       MOCLDY    25  18  74 CALM      29.91S
SCOTTSBLUFF    MOCLDY    27  18  69 E3        29.92F
SIDNEY         MOCLDY    32  19  58 SW5       29.95S WCI  27

...WESTERN AND NORTH CENTRAL NEBRASKA...

CITY           SKY/WX    TMP DP  RH WIND       PRES   REMARKS
VALENTINE      CLEAR     27  20  75 SW12      29.93F WCI  17
AINSWORTH      CLEAR     25  19  78 S17G23    29.95F WCI  12
ONEILL         CLEAR     24  20  85 S14       30.04F WCI  12
BROKEN BOW     CLEAR     23  17  78 S12       30.05F WCI  12
IMPERIAL       CLOUDY    30  22  72 SE3       30.00F
NORTH PLATTE   MOCLDY    19  15  84 CALM      30.03F
MCCOOK         MOCLDY    20  16  84 E5        30.05F WCI  13

...EASTERN NEBRASKA...

CITY           SKY/WX    TMP DP  RH WIND       PRES   REMARKS
NORFOLK        PTCLDY    18  15  88 SE9       30.14F WCI   7
SO SIOUX CITY  PTCLDY    13   9  84 SE9       30.21F WCI   1
TEKAMAH        PTCLDY    14   9  80 S6        30.23F WCI   5
COLUMBUS       MOCLDY    19  12  73 SE3       30.17F
ALBION         PTCLDY    19  15  84 S9        30.13S WCI   8
OMAHA EPPLEY   PTCLDY    18  13  80 SE8       30.25F WCI   8
OFFUTT AFB     PTCLDY    17  12  81 E7        30.23F WCI   7
MILLARD        PTCLDY    19  14  82 SE3       30.23F
LINCOLN        PTCLDY    20  15  81 SE3       30.22F
NEBRASKA CITY  PTCLDY    17  12  78 SE3       30.23F
BEATRICE       PTCLDY    21  17  83 E3        30.19F
FALLS CITY     CLEAR     18  15  88 E6        30.24F WCI  10

...NORTHERN KANSAS...

CITY           SKY/WX    TMP DP  RH WIND       PRES   REMARKS
GOODLAND       CLOUDY    36  28  73 S18       30.00F WCI  26
HILL CITY      MOCLDY    24  18  77 E5        30.10F WCI  18
NORTON         SUNNY     23  16  74 SE5       30.07F WCI  17
PHILLIPSBURG   CLEAR     23  18  80 NE6       30.13F WCI  16
SMITH CENTER   CLEAR     19  16  86 E9        30.14F WCI   9
BELOIT         CLEAR     21  18  86 E3        30.15F
HAYS           PTCLDY    25  14  63 E3        30.11F
RUSSELL        PTCLDY    24  19  81 NE3       30.11F
CONCORDIA      PTCLDY    21  17  84 SE6       30.16F WCI  13
SALINA         PTCLDY    25  17  72 NE3       30.17F
TOPEKA         CLEAR     24  16  71 E5        30.23F WCI  18



USA.gov is the U.S. government's official web portal to all federal, state and local government web resources and services.